Regional Weather Roundup
Issued by NWS

Home | Current Version | Previous Version | Graphics & Text | Print | Product List | Glossary On
Versions: 1 2 3 4 5 6 7 8 9 10 11 12 13 14 15 16 17 18 19 20 21 22 23 24 25 26 27
000
ASUS45 KBOU 281507
RWRCO

WEATHER ROUNDUP FOR COLORADO
NATIONAL WEATHER SERVICE DENVER/BOULDER CO
900 AM MDT SUN MAY 28 2017

NOTE: "FAIR" INDICATES FEW OR NO CLOUDS BELOW 12000 FEET WITH NO
SIGNIFICANT WEATHER AND/OR OBSTRUCTIONS TO VISIBILITY.

COZ001>005-013-030-031-281600-
...NORTHWEST COLORADO...

CITY           SKY/WX    TMP DP  RH WIND       PRES   REMARKS
CRAIG          FAIR      49  35  58 NE6       30.37S
HAYDEN         FAIR      46  30  53 E9        30.37F
MEEKER         FAIR      48  30  49 CALM      30.36F
RABBIT EARS PA NOT AVBL
STEAMBOAT SPGS NOT AVBL
WALDEN         NOT AVBL
$$

COZ006>008-011-281600-
...WEST CENTRAL VALLEYS...

CITY           SKY/WX    TMP DP  RH WIND       PRES   REMARKS
GRAND JUNCTION FAIR      60  30  32 SE7       30.30S
MONTROSE       FAIR      53  29  39 CALM      30.34F
EAGLE          SUNNY     45  32  61 CALM      30.44S
RIFLE          FAIR      52  34  50 VRB3      30.35F
DELTA          FAIR      55  31  39 CALM      30.33S
NUCLA          FAIR      55  28  35 NW3       30.34S
$$

COZ017>023-064>068-281600-
...SOUTHWEST COLORADO...

CITY           SKY/WX    TMP DP  RH WIND       PRES   REMARKS
DURANGO        FAIR      55  24  30 CALM      30.31R
CORTEZ         FAIR      53  29  39 CALM      30.29S
PAGOSA SPRINGS FAIR      55  17  22 N3        30.35S
TELLURIDE      FAIR      45  20  36 CALM      30.41S
WOLF CREEK PAS NOT AVBL
$$

COZ009-010-012-014-032>034-037-058>063-281600-
...CENTRAL COLORADO...

CITY           SKY/WX    TMP DP  RH WIND       PRES   REMARKS
ASPEN          FAIR      46  27  47 CALM      30.38F
BUENA VISTA    FAIR      45  25  45 NE3       30.41F
COPPER MTN     NOT AVBL
BERTHOUD PASS  NOT AVBL
COTTONWOOD PAS NOT AVBL
GUNNISON       FAIR      42  26  53 N5        30.41F
KREMMLING      NOT AVBL
LEADVILLE      FAIR      35  21  56 CALM      30.45R
SALIDA         FAIR      47  27  46 CALM      30.48F
SUNLIGHT       NOT AVBL
WILKERSON PASS NOT AVBL
$$

COZ069>075-281600-
...SAN LUIS VALLEY/SANGRE DE CRISTO MOUNTAINS...

CITY           SKY/WX    TMP DP  RH WIND       PRES   REMARKS
ALAMOSA        FAIR      48  30  49 VRB3      30.38R
DEL NORTE      NOT AVBL
LA VETA PASS   NOT AVBL
SAGUACHE       NOT AVBL
$$

COZ035-036-038>040-281600-
...NORTHERN COLORADO FRONT RANGE...

CITY           SKY/WX    TMP DP  RH WIND       PRES   REMARKS
DENVER INTL AP FAIR      58  35  42 SW10      30.29R
DMNS CITY PARK   N/A     59  35  40 SE8       30.30R
AURORA         MOSUNNY   56  34  42 SW9       30.30S
FRONT RANGE AP SUNNY     59  37  44 SW9       30.30R
ERIE MUNI ARPT NOT AVBL
BOULDER MUN AP NOT AVBL
CENTENNIAL     FAIR      56  33  42 W8        30.31R
BROOMFIELD     SUNNY     61  28  29 CALM      30.31R
FORT COLLINS   FAIR      60  38  43 CALM      30.27S
LONGMONT       NOT AVBL
$$

COZ041-046-047-076>085-087-088-281600-
...PIKES PEAK/PALMER DIVIDE AND SOUTHERN FOOTHILLS...

CITY           SKY/WX    TMP DP  RH WIND       PRES   REMARKS
COLO. SPRINGS  FAIR      58  30  34 N10       30.33S
A. F. ACADEMY  FAIR      55  28  35 N9        30.33R
SCHRIEVER AFB  FAIR      56  30  36 NW10      30.33R
CHEYENNE MTN   FAIR      54  25  32 N13       30.30R
ELLICOTT       FAIR     N/A N/A N/A N10       30.32R
FALCON         FAIR      55  26  33 NW8       30.36R
FORT CARSON    FAIR      57  34  41 N7        30.32R
LIMON          FAIR      58  37  45 NW16      30.28S
MONUMENT HILL  NOT AVBL
CANON CITY     NOT AVBL
WALSENBURG     FAIR      57  36  44 CALM      30.35R
TRINIDAD       FAIR      57  40  52 NW8       30.34R
$$

COZ042>045-048>051-090-091-281600-
...NORTHEAST COLORADO...

CITY           SKY/WX    TMP DP  RH WIND       PRES   REMARKS
GREELEY ARPT   FAIR      57  40  52 W5        30.27S
AKRON          FAIR      55  41  59 W14       30.24R
BURLINGTON     FAIR      62  45  53 NW15      30.22R
WRAY           FAIR      64  41  42 NW13G18   30.19R
YUMA           NOT AVBL
STERLING       NOT AVBL
HOLYOKE        NOT AVBL
FORT MORGAN    FAIR      56  40  54 W12       30.25S
$$

COZ086-089-092>099-281600-
...SOUTHEAST COLORADO...

CITY           SKY/WX    TMP DP  RH WIND       PRES   REMARKS
PUEBLO         FAIR      60  42  51 NW10      30.28S
LA JUNTA       FAIR      60  47  61 NW12      30.26R
LAMAR          FAIR      61  48  62 W13       30.22R
SPRINGFIELD      N/A     61  45  55 NW17      30.25R
$$




USA.gov is the U.S. government's official web portal to all federal, state and local government web resources and services.